Torna al catalogo

STARLINK-11167

AttivoComunicazioniVLEO
NORAD 60061·PAYLOAD·🇺🇸 United States

Lanciato Jun 19, 2024 da Vandenberg Space Force Base

Loading…

Prossimi Passaggi (prossime 24 ore)

TLE

AggiornatoSource: CelesTrak SupGP

Epoca: Sep 14, 2026, 20:46 UTC

1 60061C 24113C   26257.86576389 -.00047555  00000+0 -39156-3 0  2579
2 60061  53.1561 338.6596 0001126  75.7698 269.6497 15.69743416    18

Traccia STARLINK-11167 in tempo reale con AllMySat

Download on the App Store